Regional Weather Roundup
Issued by NWS Goodland, KS

Home | Current Version | Previous Version | Text Only | Print | Product List | Glossary On
Versions: 1 2 3 4 5 6 7 8 9 10 11 12 13 14 15 16 17 18 19 20 21 22 23 24 25 26 27 28 29 30 31 32 33 34 35 36 37 38 39 40 41 42 43 44 45 46 47 48 49 50
000
ASUS43 KGLD 281708
RWRGLD

GOODLAND FORECAST AREA HOURLY WEATHER ROUNDUP
NATIONAL WEATHER SERVICE GOODLAND KS
1100 AM MDT TUE JUL 28 2015

...OFFICIAL OBSERVATIONS...

CITY           SKY/WX    TMP DP  RH WIND       PRES   REMARKS
GOODLAND KS    SUNNY     79  41  25 N23G37    30.06R
HILL CITY KS   SUNNY     83  60  45 N24G35    29.94R
IMPERIAL NEB   MOSUNNY   75  42  30 N14       30.07R
MCCOOK NEB     SUNNY     79  52  38 N18       30.00R
AKRON CO         N/A     75  35  23 N20G25    30.13F
BURLINGTON CO  SUNNY     75  42  30 N21       30.10S
LIMON CO       SUNNY     72  39  30 N15       30.18R
$$

...UNOFFICIAL OBSERVATIONS...

CITY           SKY/WX    TMP DP  RH WIND       PRES   REMARKS
COLBY KS       SUNNY     79  55  44 N23G31    30.03
NORTON KS      SUNNY     79  50  36 N22G30    29.96R
SHARON SPRINGS   N/A     77  51  39 N14G24      N/A
KIT CARSON CO    N/A     77  41  27 MISG        N/A
$$


USA.gov is the U.S. government's official web portal to all federal, state and local government web resources and services.